Location: C.E.K. Mees Observatory
(42.7003°N, 77.4088°W)
Time: 02:49:03
(UTC-04:00)

Vanguard 3 - Pass Details

Date: 28 June 2018
Orbit: 508 x 3264 km, 33.3° (Epoch: 15 July)

Event Time Altitude Azimuth Distance (km) Brightness Sun altitude
Rises 08:04:43 0° 260° (W) 3,950 10.1 24.8°
Reaches altitude 10° 08:08:14 10° 240° (WSW) 3,401 9.9 25.4°
Maximum altitude 08:13:38 17° 203° (SSW) 3,447 10.2 26.4°
Drops below altitude 10° 08:20:51 10° 168° (SSE) 4,761 11.2 27.7°
Sets 08:27:25 0° 153° (SSE) 6,334 12.0 28.9°
